User: anonymous   Login
Location: *
(51.1248°S, 108.4023°W)
Time: 16:48:19
(UTC+00:00)
Language:

SMAP - Orbit

View from above orbital plane
View from above orbital plane
View from above satellite
View from above satellite

Ground track
Ground track

The orbit data is extracted from the following two-line orbital elements,

1 40376U 15003A   21269.16455860  .00000100  00000-0  28406-4 0  9999
2 40376  98.1261 274.8587 0001076  70.3692 289.7627 14.63359538355338
Epoch (UTC): 26 September 2021 03:56:57
Eccentricity: 0.0001076
inclination: 98.1261°
perigee height: 681 km
apogee height: 683 km
right ascension of ascending node: 274.8587°
argument of perigee: 70.3692°
revolutions per day: 14.63359538
mean anomaly at epoch: 289.7627°
orbit number at epoch: 35533

The dashed part of the orbit path shows where the satellite is in the earth's shadow,  

DLR